TimeCDT,TemperatureF,Dew PointF,Humidity,Sea Level PressureIn,VisibilityMPH,Wind Direction,Wind SpeedMPH,Gust SpeedMPH,PrecipitationIn,Events,Conditions,WindDirDegrees,DateUTC
12:53 AM,33.1,24.1,70,30.24,10.0,NW,8.1,-,N/A,,Overcast,320,2013-04-24 05:53:00
1:53 AM,30.9,24.1,76,30.23,10.0,NW,9.2,-,N/A,,Clear,320,2013-04-24 06:53:00
2:53 AM,30.0,23.0,75,30.22,10.0,NW,5.8,-,N/A,,Clear,310,2013-04-24 07:53:00
3:53 AM,28.0,23.0,81,30.22,10.0,WNW,6.9,-,N/A,,Clear,300,2013-04-24 08:53:00
4:53 AM,26.6,23.0,86,30.19,10.0,WNW,5.8,-,N/A,,Clear,300,2013-04-24 09:53:00
5:53 AM,26.1,21.9,84,30.23,10.0,WNW,6.9,-,N/A,,Clear,290,2013-04-24 10:53:00
6:53 AM,26.1,21.9,84,30.24,10.0,West,4.6,-,N/A,,Clear,280,2013-04-24 11:53:00
7:53 AM,30.0,24.1,79,30.25,10.0,West,5.8,-,N/A,,Clear,280,2013-04-24 12:53:00
8:53 AM,34.0,26.1,73,30.27,10.0,West,9.2,-,N/A,,Clear,260,2013-04-24 13:53:00
9:53 AM,39.0,28.0,65,30.24,10.0,West,8.1,-,N/A,,Unknown,280,2013-04-24 14:53:00
10:53 AM,42.1,25.0,51,30.25,10.0,WNW,6.9,-,N/A,,Clear,300,2013-04-24 15:53:00
12:53 PM,48.9,30.0,48,30.22,10.0,WSW,11.5,-,N/A,,Clear,250,2013-04-24 17:53:00
1:53 PM,51.1,28.9,43,30.20,10.0,WSW,15.0,20.7,N/A,,Clear,240,2013-04-24 18:53:00
2:53 PM,53.1,30.0,41,30.18,10.0,WSW,12.7,21.9,N/A,,Clear,240,2013-04-24 19:53:00
3:53 PM,55.0,28.9,37,30.17,10.0,WSW,15.0,19.6,N/A,,Clear,250,2013-04-24 20:53:00
4:53 PM,55.9,30.0,37,30.14,10.0,WSW,16.1,24.2,N/A,,Clear,250,2013-04-24 21:53:00
5:53 PM,55.9,30.9,39,30.13,10.0,SW,15.0,24.2,N/A,,Clear,230,2013-04-24 22:53:00
6:53 PM,55.9,30.9,39,30.11,10.0,SW,16.1,24.2,N/A,,Clear,220,2013-04-24 23:53:00
7:53 PM,54.0,32.0,43,30.12,10.0,SW,13.8,20.7,N/A,,Mostly Cloudy,230,2013-04-25 00:53:00
8:17 PM,51.8,35.6,54,30.13,10.0,WNW,20.7,34.5,0.00,Rain,Light Rain,300,2013-04-25 01:17:00
8:53 PM,52.0,35.1,53,30.17,10.0,WSW,15.0,-,0.00,,Overcast,250,2013-04-25 01:53:00
9:53 PM,48.9,36.0,61,30.18,10.0,NW,6.9,-,N/A,,Overcast,310,2013-04-25 02:53:00
10:53 PM,46.9,35.1,63,30.21,10.0,WNW,3.5,-,N/A,,Scattered Clouds,290,2013-04-25 03:53:00
11:53 PM,43.0,34.0,71,30.23,10.0,WNW,5.8,-,N/A,,Clear,290,2013-04-25 04:53:00